Year,Month,Day,Hour,Minute,Value (Times are PST for insolation in W/m^2)
2021,04,25,12,19,360.00
2021,04,25,12,20,360.00
2021,04,25,12,21,359.50
2021,04,25,12,22,351.90
2021,04,25,12,23,338.30
2021,04,25,12,24,323.10
2021,04,25,12,25,308.50
2021,04,25,12,26,299.20
2021,04,25,12,27,292.00
2021,04,25,12,28,284.10
2021,04,25,12,29,278.40
2021,04,25,12,30,276.00
2021,04,25,12,31,278.60
2021,04,25,12,32,284.10
2021,04,25,12,33,291.40
2021,04,25,12,34,298.90
2021,04,25,12,35,302.00
2021,04,25,12,36,300.40
2021,04,25,12,37,300.60
2021,04,25,12,38,305.70
2021,04,25,12,39,312.90
2021,04,25,12,40,318.20
2021,04,25,12,41,321.60
2021,04,25,12,42,325.10
2021,04,25,12,43,329.50
2021,04,25,12,44,335.70
2021,04,25,12,45,342.70
2021,04,25,12,46,349.90
2021,04,25,12,47,360.70
2021,04,25,12,48,377.50
2021,04,25,12,49,397.00
2021,04,25,12,50,403.20
2021,04,25,12,51,399.90
2021,04,25,12,52,401.10
2021,04,25,12,53,407.20
2021,04,25,12,54,419.40
2021,04,25,12,55,438.00
2021,04,25,12,56,466.70
2021,04,25,12,57,502.40
2021,04,25,12,58,519.50
2021,04,25,12,59,514.50
2021,04,25,13,00,525.40
2021,04,25,13,01,554.50
2021,04,25,13,02,562.00
2021,04,25,13,03,558.10
2021,04,25,13,04,559.00
2021,04,25,13,05,547.00
2021,04,25,13,06,524.50
2021,04,25,13,07,507.30
2021,04,25,13,08,498.20
2021,04,25,13,09,494.90
2021,04,25,13,10,494.00
2021,04,25,13,11,495.10
2021,04,25,13,12,499.70
2021,04,25,13,13,503.50
2021,04,25,13,14,510.00
2021,04,25,13,15,517.10
2021,04,25,13,16,519.50
2021,04,25,13,17,522.00
2021,04,25,13,18,525.70
2021,04,25,13,19,530.80
2021,04,25,13,20,545.00
2021,04,25,13,21,587.50
2021,04,25,13,22,649.10
2021,04,25,13,23,683.30
2021,04,25,13,24,715.70
2021,04,25,13,25,740.00
2021,04,25,13,26,650.90
2021,04,25,13,27,562.60
2021,04,25,13,28,532.60
2021,04,25,13,29,506.00
2021,04,25,13,30,484.90
2021,04,25,13,31,459.30
2021,04,25,13,32,441.70
2021,04,25,13,33,442.20
2021,04,25,13,34,448.70
2021,04,25,13,35,460.80
2021,04,25,13,36,482.70
2021,04,25,13,37,511.70
2021,04,25,13,38,534.20
2021,04,25,13,39,559.90
2021,04,25,13,40,601.60
2021,04,25,13,41,645.50
2021,04,25,13,42,670.70
2021,04,25,13,43,677.00
2021,04,25,13,44,797.50
2021,04,25,13,45,843.40
2021,04,25,13,46,786.50
2021,04,25,13,47,761.30
2021,04,25,13,48,751.70
2021,04,25,13,49,726.70
2021,04,25,13,50,667.00
2021,04,25,13,51,638.90
2021,04,25,13,52,623.30
2021,04,25,13,53,572.00
2021,04,25,13,54,507.50
2021,04,25,13,55,503.10
2021,04,25,13,56,516.50
2021,04,25,13,57,513.70
2021,04,25,13,58,525.50
2021,04,25,13,59,519.70
2021,04,25,14,00,492.60
2021,04,25,14,01,481.10
2021,04,25,14,02,488.60
2021,04,25,14,03,455.50
2021,04,25,14,04,414.10
2021,04,25,14,05,420.30
2021,04,25,14,06,445.20
2021,04,25,14,07,440.50
2021,04,25,14,08,418.20
2021,04,25,14,09,429.50
2021,04,25,14,10,487.50
2021,04,25,14,11,487.10
2021,04,25,14,12,436.60
2021,04,25,14,13,423.90
2021,04,25,14,14,427.00
2021,04,25,14,15,427.00
2021,04,25,14,16,427.00
2021,04,25,14,17,573.30
2021,04,25,14,18,716.10
2021,04,25,14,19,720.20
2021,04,25,14,20,684.90
2021,04,25,14,21,696.80
2021,04,25,14,22,734.10
2021,04,25,14,23,772.60
2021,04,25,14,24,779.00
2021,04,25,14,25,783.20
2021,04,25,14,26,837.60
2021,04,25,14,27,839.20
2021,04,25,14,28,773.30
2021,04,25,14,29,703.20
2021,04,25,14,30,652.10
2021,04,25,14,31,646.10
2021,04,25,14,32,622.00
2021,04,25,14,33,635.00
2021,04,25,14,34,641.30
2021,04,25,14,35,655.90
2021,04,25,14,36,691.00
2021,04,25,14,37,691.00
2021,04,25,14,38,691.00
2021,04,25,14,39,720.20
2021,04,25,14,40,693.40
2021,04,25,14,41,671.20
2021,04,25,14,42,687.00
2021,04,25,14,43,687.00
2021,04,25,14,44,658.40
2021,04,25,14,45,635.00
2021,04,25,14,46,784.60
2021,04,25,14,47,890.50
2021,04,25,14,48,870.40
2021,04,25,14,49,870.50
2021,04,25,14,50,881.00
2021,04,25,14,51,844.20
2021,04,25,14,52,830.30
2021,04,25,14,53,847.00
2021,04,25,14,54,847.00
2021,04,25,14,55,847.00
2021,04,25,14,56,847.00
2021,04,25,14,57,850.20
2021,04,25,14,58,833.60
2021,04,25,14,59,788.50
2021,04,25,15,00,783.60
2021,04,25,15,01,758.40
2021,04,25,15,02,732.00
2021,04,25,15,03,744.70
2021,04,25,15,04,728.50
2021,04,25,15,05,706.20
2021,04,25,15,06,703.00
2021,04,25,15,07,703.00
2021,04,25,15,08,703.00
2021,04,25,15,09,703.00
2021,04,25,15,10,621.00
2021,04,25,15,11,554.00
2021,04,25,15,12,423.10
2021,04,25,15,13,303.90
2021,04,25,15,14,289.00
2021,04,25,15,15,286.10
2021,04,25,15,16,287.00
2021,04,25,15,17,357.40
2021,04,25,15,18,433.10
2021,04,25,15,19,472.20
2021,04,25,15,20,492.00
2021,04,25,15,21,492.00
2021,04,25,15,22,429.30
2021,04,25,15,23,394.50
2021,04,25,15,24,408.00
2021,04,25,15,25,558.70
2021,04,25,15,26,672.10
2021,04,25,15,27,667.30
2021,04,25,15,28,687.00
2021,04,25,15,29,714.80
2021,04,25,15,30,757.90
2021,04,25,15,31,784.00
2021,04,25,15,32,784.00
2021,04,25,15,33,784.00
2021,04,25,15,34,789.00
2021,04,25,15,35,793.00
2021,04,25,15,36,558.20
2021,04,25,15,37,358.30
2021,04,25,15,38,365.20
2021,04,25,15,39,376.00
2021,04,25,15,40,579.00
2021,04,25,15,41,745.00
2021,04,25,15,42,655.30
2021,04,25,15,43,582.00
2021,04,25,15,44,559.50
2021,04,25,15,45,549.80
2021,04,25,15,46,510.80
2021,04,25,15,47,454.30
2021,04,25,15,48,423.60
2021,04,25,15,49,381.30
2021,04,25,15,50,359.80
2021,04,25,15,51,371.90
2021,04,25,15,52,388.80
2021,04,25,15,53,446.00
2021,04,25,15,54,504.60
2021,04,25,15,55,514.00
2021,04,25,15,56,500.10
2021,04,25,15,57,489.20
2021,04,25,15,58,489.80
2021,04,25,15,59,477.70
2021,04,25,16,00,429.10
2021,04,25,16,01,445.20
2021,04,25,16,02,475.30
2021,04,25,16,03,465.10
2021,04,25,16,04,457.60
2021,04,25,16,05,416.00
2021,04,25,16,06,407.00
2021,04,25,16,07,413.50
2021,04,25,16,08,397.40
2021,04,25,16,09,368.90
2021,04,25,16,10,352.80
2021,04,25,16,11,347.30
2021,04,25,16,12,349.80
2021,04,25,16,13,343.20
2021,04,25,16,14,328.10
2021,04,25,16,15,339.90
2021,04,25,16,16,357.50
2021,04,25,16,17,393.90
2021,04,25,16,18,421.10
2021,04,25,16,19,379.60
2021,04,25,16,20,379.60
2021,04,25,16,21,416.80
2021,04,25,16,22,420.70
2021,04,25,16,23,425.10
2021,04,25,16,24,421.10
2021,04,25,16,25,414.10
2021,04,25,16,26,397.40
2021,04,25,16,27,367.20
2021,04,25,16,28,350.40
2021,04,25,16,29,343.00
2021,04,25,16,30,324.70
2021,04,25,16,31,314.10
2021,04,25,16,32,312.80
2021,04,25,16,33,309.90
2021,04,25,16,34,304.60
2021,04,25,16,35,291.10
2021,04,25,16,36,275.30
2021,04,25,16,37,263.00
2021,04,25,16,38,251.40
2021,04,25,16,39,241.10
2021,04,25,16,40,234.20
2021,04,25,16,41,234.20
2021,04,25,16,42,236.60
2021,04,25,16,43,240.20
2021,04,25,16,44,246.70
2021,04,25,16,45,252.60
2021,04,25,16,46,258.70
2021,04,25,16,47,276.30
2021,04,25,16,48,290.20
2021,04,25,16,49,292.00
2021,04,25,16,50,297.50
2021,04,25,16,51,297.60
2021,04,25,16,52,290.70
2021,04,25,16,53,289.10
2021,04,25,16,54,291.10
2021,04,25,16,55,292.00
2021,04,25,16,56,293.60
2021,04,25,16,57,294.50
2021,04,25,16,58,290.70
2021,04,25,16,59,286.40
2021,04,25,17,00,286.60
2021,04,25,17,01,290.20
2021,04,25,17,02,284.90
2021,04,25,17,03,284.00
2021,04,25,17,04,287.50
2021,04,25,17,05,287.00
2021,04,25,17,06,287.00
2021,04,25,17,07,281.20
2021,04,25,17,08,275.00
2021,04,25,17,09,270.10
2021,04,25,17,10,261.50
2021,04,25,17,11,261.20
2021,04,25,17,12,260.80
2021,04,25,17,13,250.90
2021,04,25,17,14,244.40
2021,04,25,17,15,241.90
2021,04,25,17,16,241.00
2021,04,25,17,17,242.10
2021,04,25,17,18,243.60
2021,04,25,17,19,245.10
2021,04,25,17,20,246.00
2021,04,25,17,21,241.10
2021,04,25,17,22,238.10
2021,04,25,17,23,234.10
2021,04,25,17,24,228.40
2021,04,25,17,25,228.60
2021,04,25,17,26,228.40
2021,04,25,17,27,229.80
2021,04,25,17,28,230.40
2021,04,25,17,29,224.10
2021,04,25,17,30,218.90
2021,04,25,17,31,214.10
2021,04,25,17,32,208.90
2021,04,25,17,33,204.40
2021,04,25,17,34,200.40
2021,04,25,17,35,195.70
2021,04,25,17,36,190.20
2021,04,25,17,37,186.40
2021,04,25,17,38,182.80
2021,04,25,17,39,179.40
2021,04,25,17,40,176.90
2021,04,25,17,41,176.00
2021,04,25,17,42,174.90
2021,04,25,17,43,172.40
2021,04,25,17,44,169.90
2021,04,25,17,45,166.80
2021,04,25,17,46,163.90
2021,04,25,17,47,163.00
2021,04,25,17,48,162.40
2021,04,25,17,49,162.00
2021,04,25,17,50,159.80
2021,04,25,17,51,156.90
2021,04,25,17,52,155.40
2021,04,25,17,53,153.90
2021,04,25,17,54,153.00
2021,04,25,17,55,150.20
2021,04,25,17,56,145.80
2021,04,25,17,57,142.90
2021,04,25,17,58,141.40
2021,04,25,17,59,138.80
2021,04,25,18,00,135.90
2021,04,25,18,01,134.50
2021,04,25,18,02,132.90
2021,04,25,18,03,130.90
2021,04,25,18,04,129.00
2021,04,25,18,05,127.50
2021,04,25,18,06,126.00
2021,04,25,18,07,123.90
2021,04,25,18,08,121.40
2021,04,25,18,09,119.00
2021,04,25,18,10,116.90
2021,04,25,18,11,115.00
2021,04,25,18,12,114.00
2021,04,25,18,13,113.40
2021,04,25,18,14,113.00
2021,04,25,18,15,112.00
2021,04,25,18,16,109.90
2021,04,25,18,17,107.90
2021,04,25,18,18,105.90
2021,04,25,18,19,105.00
2021,04,25,18,20,104.40
2021,04,25,18,21,102.90
2021,04,25,18,22,102.00
2021,04,25,18,23,100.90
2021,04,25,18,24,100.00
2021,04,25,18,25,100.00
2021,04,25,18,26,100.00
2021,04,25,18,27,100.00
2021,04,25,18,28,99.00
2021,04,25,18,29,98.00
2021,04,25,18,30,97.50
2021,04,25,18,31,97.00
2021,04,25,18,32,97.00
2021,04,25,18,33,97.00
2021,04,25,18,34,97.00
2021,04,25,18,35,97.00
2021,04,25,18,36,95.90
2021,04,25,18,37,95.00
2021,04,25,18,38,95.00
2021,04,25,18,39,95.00
2021,04,25,18,40,95.00
2021,04,25,18,41,95.00
2021,04,25,18,42,95.00
2021,04,25,18,43,95.00
2021,04,25,18,44,95.00
2021,04,25,18,45,95.00
2021,04,25,18,46,95.00
2021,04,25,18,47,96.10
2021,04,25,18,48,95.90
2021,04,25,18,49,96.10
2021,04,25,18,50,97.00
2021,04,25,18,51,97.00
2021,04,25,18,52,97.00
2021,04,25,18,53,97.00
2021,04,25,18,54,97.00
2021,04,25,18,55,95.90
2021,04,25,18,56,95.00
2021,04,25,18,57,93.90
2021,04,25,18,58,93.00
2021,04,25,18,59,91.90
2021,04,25,19,00,90.40
2021,04,25,19,01,88.90
2021,04,25,19,02,86.90
2021,04,25,19,03,84.90
2021,04,25,19,04,83.50
2021,04,25,19,05,81.90
2021,04,25,19,06,81.00
2021,04,25,19,07,79.90
2021,04,25,19,08,77.90
2021,04,25,19,09,77.00
2021,04,25,19,10,76.40
2021,04,25,19,11,74.90
2021,04,25,19,12,72.90
2021,04,25,19,13,70.90
2021,04,25,19,14,69.40
2021,04,25,19,15,67.90
2021,04,25,19,16,65.90
2021,04,25,19,17,63.30
2021,04,25,19,18,62.50
2021,04,25,19,19,63.00
2021,04,25,19,20,63.00
2021,04,25,19,21,63.00
2021,04,25,19,22,63.00
2021,04,25,19,23,63.00
2021,04,25,19,24,63.00
2021,04,25,19,25,63.00
2021,04,25,19,26,63.00
2021,04,25,19,27,63.00
2021,04,25,19,28,63.00
2021,04,25,19,29,63.00
